[[{"header":{"parameterUnit":"m.s-1","parameterCategory":2,"la1":30.2991,"la2":30.254,"lo1":-89.0895,"lo2":-89.0444,"dy":0.0017,"dx":0.0017,"nx":28,"ny":28,"refTime":"2025-04-25T09:00:00:Z","depth":"0","parameterNumber":2,"parameterNumberName":"U-component_of_CURRENTS"},"data":[0,0,0,0,0,0,0,0,0,0,0,0,0,0,0,0,0,0,0,0,0,0,0,0,0,0,0,0,0,0,0,0,0,0,0,0,0,0,0,0,0,0,0,0,0,0,0,0,0,0,0,0,0,0,0,0,0,0,0.3778,0.3778,0,0.3735,0.3733,0.3732,0.3686,0.3686,0.3686,0.3686,0.3628,0.3626,0.3625,0,0,0,0,0,0,0,0,0,0,0,0,0,0.3786,0.3786,0.3778,0.3778,0.3778,0.3735,0.3733,0.3732,0.3686,0.3686,0.3686,0.3686,0.3628,0.3627,0.3625,0,0,0,0,0,0,0,0,0,0,0,0,0,0.376,0.3786,0.3778,0.3755,0.3754,0.3735,0.3733,0.3732,0.3686,0.3686,0.3686,0.3686,0.3629,0.3627,0.3624,0.3609,0,0,0.3617,0.3616,0,0,0,0,0,0,0,0,0.3761,0.3758,0.3759,0.3757,0.3755,0.3722,0.3715,0.3692,0.3686,0.3704,0.3686,0.3686,0.3663,0.3658,0.3639,0.3606,0.3603,0.3617,0.3615,0.3614,0.3614,0,0,0,0,0,0,0,0.3763,0.376,0.3753,0.3759,0.3757,0.3736,0.3732,0.371,0.3678,0.3702,0.3701,0.3708,0.3661,0.3641,0.3637,0.3602,0.3617,0.3615,0.3613,0.3612,0.3615,0.3616,0,0,0,0,0,0,0.3785,0.3762,0.3754,0.3752,0.3767,0.3737,0.3732,0.3727,0.3678,0.3673,0.3708,0.3706,0.3645,0.364,0.3635,0.368,0.3614,0.3612,0.3611,0.3614,0.3615,0.3617,0,0,0,0,0,0,0.3785,0.3784,0.3756,0.3763,0.3759,0.3738,0.3732,0.3726,0.3717,0.3684,0.3677,0.3708,0.3645,0.3639,0.3628,0.3675,0.3611,0.3609,0.3612,0.3614,0.3616,0.3728,0,0,0,0,0,0,0.3785,0.3784,0.3792,0.3764,0.376,0.3754,0.3732,0.3725,0.3725,0.3722,0.3681,0.3675,0.3645,0.3632,0.3625,0.3671,0.3607,0.361,0.3613,0.3615,0.3722,0.3734,0.3743,0,0,0,0,0,0.3785,0.3785,0.3792,0.3792,0.3769,0.3755,0.375,0.373,0.3725,0.3721,0.3699,0.3677,0.3646,0.363,0.3623,0.3669,0.3608,0.3612,0.3615,0.3718,0.3731,0.3743,0,0,0,0,0,0,0.3772,0.3781,0.3787,0.3785,0.3782,0.375,0.3738,0.374,0.3718,0.3711,0.3682,0.3674,0.3689,0.3657,0.3641,0.3678,0.3629,0.3631,0.371,0.3722,0.3733,0.3708,0.3605,0,0,0,0,0,0.3783,0.3798,0.3792,0.3794,0.3784,0.3768,0.3763,0.3756,0.3735,0.3725,0.3712,0.3696,0.3695,0.369,0.3675,0.3684,0.3615,0.3713,0.3723,0.3732,0.3708,0.3669,0.3674,0.3628,0.3628,0.3628,0,0,0.3776,0.3789,0.3793,0.3797,0.3777,0.3776,0.3761,0.375,0.3764,0.3723,0.373,0.3729,0.3705,0.3723,0.3728,0.3703,0.3706,0.3737,0.3745,0.3714,0.3673,0.3677,0.3681,0.363,0.363,0.363,0,0,0.3763,0.3776,0.3775,0.378,0.378,0.3782,0.3789,0.3776,0.3776,0.379,0.3777,0.38,0.3787,0.379,0.3788,0.3843,0.3765,0.3854,0.3886,0.3851,0.3854,0.3855,0.3757,0.3748,0.3859,0.3859,0.3859,0,0.3754,0.3755,0.3771,0.3769,0.3771,0.3791,0.378,0.3794,0.3794,0.38,0.3804,0.3817,0.3819,0.3839,0.3874,0.3869,0.3804,0.3845,0.3864,0.3864,0.3864,0.3762,0.3751,0.3865,0.3864,0.3864,0.3863,0,0.3739,0.3741,0.3731,0.3753,0.3764,0.3756,0.3783,0.3805,0.383,0.3853,0.3882,0.3887,0.3888,0.3926,0.3918,0.3938,0.3876,0.3884,0.383,0.3875,0.3764,0.3752,0.3873,0.3871,0.3869,0.3868,0,0,0.3679,0.3716,0.3709,0.3704,0.375,0.3741,0.3788,0.3816,0.3826,0.3882,0.3886,0.3951,0.3961,0.3956,0.3968,0.3963,0.3932,0.3929,0.3924,0.3825,0.3793,0.3742,0.3721,0.3943,0.3942,0.3941,0.371,0,0.3644,0.3639,0.3682,0.3675,0.3652,0.371,0.3744,0.3791,0.3832,0.3853,0.3905,0.3915,0.3971,0.3966,0.3984,0.394,0.3904,0.3989,0.3766,0.3758,0.3705,0.3709,0.3605,0.339,0.3696,0.3694,0.3693,0,0.3579,0.3594,0.3576,0.3603,0.3597,0.3622,0.3655,0.3693,0.3764,0.3794,0.3847,0.3869,0.3897,0.3923,0.3868,0.3915,0.3853,0.3819,0.381,0.3707,0.3684,0.3399,0.3354,0.3272,0.3672,0.3673,0.3675,0,0.3471,0.3496,0.3482,0.3492,0.3548,0.3554,0.3596,0.3666,0.3679,0.3743,0.374,0.3798,0.3773,0.3762,0.3745,0.3782,0.3644,0.3677,0.3555,0.3547,0.3384,0.3365,0.3227,0.3594,0.3595,0.3596,0.3596,0,0.3386,0.3361,0.3428,0.3413,0.3401,0.3467,0.3463,0.3523,0.3578,0.357,0.3687,0.3664,0.373,0.3687,0.3685,0.3576,0.3588,0.3529,0.3491,0.3419,0.3407,0.3269,0.3247,0.3587,0.3589,0.359,0.3592,0,0.3244,0.329,0.3263,0.3322,0.3337,0.3322,0.338,0.3363,0.3449,0.3429,0.3437,0.3517,0.3481,0.3516,0.3456,0.3447,0.3267,0.3329,0.3219,0.3175,0.3011,0.3,0.2655,0.258,0.3134,0.3131,0.3129,0,0.3171,0.3141,0.318,0.3148,0.3168,0.3177,0.3164,0.3279,0.327,0.3325,0.3285,0.3281,0.3278,0.3203,0.3196,0.3135,0.3098,0.2973,0.3054,0.2961,0.292,0.2825,0.2783,0.2853,0.2848,0.2845,0.2842,0,0.3019,0.3032,0.3018,0.2978,0.2952,0.2943,0.2952,0.2943,0.3041,0.3043,0.3035,0.3047,0.3025,0.2962,0.2921,0.2895,0.2833,0.2899,0.2829,0.2702,0.2554,0.2479,0.3013,0.2811,0.2815,0.2817,0.2818,0.282,0.2887,0.2847,0.2824,0.2776,0.2745,0.2697,0.2656,0.2675,0.2668,0.2665,0.2767,0.2748,0.2776,0.2742,0.2692,0.2549,0.2566,0.248,0.2467,0.2373,0.2327,0.2778,0.2547,0.2548,0.2549,0.255,0.2551,0,0.271,0.2681,0.2616,0.2556,0.2472,0.2526,0.2487,0.2436,0.2387,0.2431,0.2451,0.2436,0.238,0.2395,0.2286,0.2152,0.2075,0.2074,0.1929,0.1912,0.2319,0.2344,0.2026,0.2026,0.2026,0.2027,0.2027,0.2027,0.261,0.2504,0.249,0.2316,0.2268,0.2146,0.2111,0.2066,0.2082,0.2028,0.2018,0.2069,0.2116,0.202,0.188,0.1841,0.1697,0.1563,0.1577,0.1911,0.1949,0.1985,0.2005,0.1621,0.1621,0.1102,0.1098,0.1095]},{"header":{"parameterUnit":"m.s-1","parameterCategory":2,"la1":30.2991,"la2":30.254,"lo1":-89.0895,"lo2":-89.0444,"dy":0.0017,"dx":0.0017,"nx":28,"ny":28,"refTime":"2025-04-25T09:00:00:Z","depth":"0","parameterNumber":3,"parameterNumberName":"V-component_of_CURRENTS"},"data":[0,0,0,0,0,0,0,0,0,0,0,0,0,0,0,0,0,0,0,0,0,0,0,0,0,0,0,0,0,0,0,0,0,0,0,0,0,0,0,0,0,0,0,0,0,0,0,0,0,0,0,0,0,0,0,0,0,0,0.0297,0.0297,0,0.0291,0.0291,0.0291,0.0283,0.0283,0.0283,0.0283,0.025,0.025,0.0249,0,0,0,0,0,0,0,0,0,0,0,0,0,0.0285,0.0286,0.0297,0.0297,0.0297,0.0291,0.0291,0.0291,0.0283,0.0283,0.0283,0.0283,0.0251,0.025,0.0249,0,0,0,0,0,0,0,0,0,0,0,0,0,0.0286,0.0286,0.0297,0.0293,0.0292,0.0291,0.0291,0.0291,0.0283,0.0283,0.0283,0.0283,0.0251,0.025,0.0249,0.0243,0,0,0.0245,0.0245,0,0,0,0,0,0,0,0,0.0286,0.0286,0.0293,0.0293,0.0293,0.0288,0.0275,0.0274,0.0283,0.0286,0.0283,0.0283,0.0261,0.0259,0.0258,0.0242,0.0241,0.0245,0.0244,0.0244,0.0243,0,0,0,0,0,0,0,0.0286,0.0286,0.0294,0.0293,0.0293,0.0286,0.0286,0.0275,0.0273,0.0286,0.0286,0.0286,0.0261,0.0259,0.0257,0.024,0.0245,0.0244,0.0243,0.0243,0.0217,0.0217,0,0,0,0,0,0,0.0288,0.0286,0.0294,0.0294,0.0289,0.0286,0.0286,0.0289,0.0274,0.0272,0.0286,0.0286,0.0261,0.0258,0.0256,0.0261,0.0244,0.0243,0.0242,0.0217,0.0217,0.0217,0,0,0,0,0,0,0.0288,0.0289,0.0294,0.029,0.029,0.0287,0.029,0.0289,0.029,0.0274,0.0272,0.0288,0.0261,0.0257,0.025,0.0259,0.0242,0.0241,0.0217,0.0217,0.0217,0.0263,0,0,0,0,0,0,0.0288,0.0289,0.0292,0.029,0.0291,0.0302,0.029,0.0289,0.0291,0.029,0.0275,0.0272,0.0261,0.0252,0.0249,0.0257,0.024,0.0217,0.0217,0.0217,0.0261,0.0265,0.0267,0,0,0,0,0,0.0288,0.0299,0.0292,0.0293,0.0295,0.0302,0.0302,0.0298,0.0291,0.0297,0.0284,0.0273,0.025,0.0251,0.0247,0.0255,0.0217,0.0217,0.0217,0.026,0.0264,0.0267,0,0,0,0,0,0,0.03,0.03,0.0292,0.0303,0.0303,0.0301,0.0306,0.0301,0.0296,0.0294,0.0275,0.0271,0.0266,0.0253,0.0254,0.0247,0.0231,0.023,0.0265,0.0268,0.0271,0.0297,0.0239,0,0,0,0,0,0.0302,0.0308,0.0306,0.0314,0.0315,0.0309,0.031,0.031,0.0305,0.0303,0.0289,0.0274,0.0263,0.026,0.0246,0.0245,0.0237,0.0246,0.0249,0.0252,0.0269,0.027,0.0275,0.0218,0.0218,0.0218,0,0,0.031,0.0309,0.0313,0.0316,0.0314,0.0331,0.031,0.0319,0.0333,0.0299,0.0308,0.0283,0.0264,0.0262,0.0259,0.0254,0.0258,0.0252,0.0255,0.0271,0.0271,0.0277,0.0282,0.0218,0.0218,0.0218,0,0,0.0337,0.0327,0.0345,0.0348,0.035,0.0348,0.0352,0.035,0.0348,0.0349,0.0327,0.0313,0.0294,0.0287,0.0279,0.029,0.0272,0.0278,0.032,0.032,0.0325,0.033,0.0308,0.0311,0.0283,0.0284,0.0284,0,0.0346,0.037,0.0351,0.0372,0.0382,0.0359,0.0388,0.0383,0.0378,0.0385,0.0359,0.034,0.0311,0.0324,0.0319,0.03,0.029,0.031,0.0326,0.033,0.0334,0.0311,0.0313,0.0286,0.0286,0.0285,0.0285,0,0.0393,0.041,0.0421,0.0438,0.0443,0.0464,0.0457,0.0457,0.0442,0.0443,0.0443,0.0402,0.0395,0.0374,0.0346,0.0361,0.034,0.0328,0.0322,0.0343,0.0317,0.0318,0.0289,0.0288,0.0287,0.0287,0,0,0.0432,0.0451,0.0459,0.0479,0.0483,0.0499,0.0511,0.0529,0.0557,0.0526,0.0557,0.051,0.0486,0.0476,0.0436,0.0427,0.0422,0.039,0.0389,0.0378,0.041,0.04,0.04,0.0416,0.0417,0.0418,0.0373,0,0.048,0.0535,0.0529,0.0582,0.061,0.059,0.0609,0.0617,0.0615,0.0635,0.0592,0.0598,0.0527,0.0519,0.05,0.0447,0.0431,0.0434,0.0383,0.0382,0.0379,0.0404,0.0452,0.0418,0.0375,0.0375,0.0375,0,0.0539,0.0567,0.0625,0.066,0.0671,0.0692,0.0727,0.0747,0.0758,0.0756,0.075,0.0713,0.0683,0.0621,0.0552,0.0558,0.0489,0.0442,0.0439,0.0423,0.0377,0.0392,0.0422,0.0373,0.0377,0.0377,0.0377,0,0.0589,0.0639,0.0688,0.07,0.0731,0.0748,0.0767,0.0787,0.0825,0.0838,0.0857,0.0819,0.08,0.0721,0.0594,0.0578,0.0522,0.0488,0.0415,0.0412,0.0441,0.044,0.0431,0.045,0.045,0.045,0.045,0,0.065,0.0692,0.0715,0.0743,0.0809,0.0805,0.0879,0.0889,0.0928,0.0985,0.0924,0.0949,0.0825,0.0764,0.0644,0.0537,0.0556,0.0436,0.0413,0.0454,0.0454,0.0402,0.0356,0.0448,0.0449,0.0449,0.0449,0,0.0703,0.0716,0.0777,0.0816,0.0833,0.0882,0.0951,0.1006,0.1022,0.1091,0.1092,0.1057,0.0981,0.0845,0.0722,0.0609,0.0473,0.0453,0.0496,0.048,0.037,0.0324,0.0284,0.0257,0.0378,0.0378,0.0377,0,0.0736,0.0769,0.0834,0.0873,0.0892,0.0962,0.1011,0.1053,0.1116,0.1157,0.1195,0.1142,0.1128,0.0944,0.0755,0.057,0.048,0.0466,0.0446,0.0387,0.0318,0.0288,0.0266,0.0486,0.0487,0.0487,0.0488,0,0.0796,0.0812,0.086,0.0938,0.0994,0.1078,0.1149,0.1215,0.1262,0.1318,0.1373,0.1366,0.12,0.1064,0.0805,0.0662,0.0455,0.0471,0.0415,0.0415,0.038,0.0336,0.0468,0.0493,0.0492,0.0492,0.0491,0.0491,0.0834,0.0876,0.0925,0.1004,0.1076,0.1168,0.1244,0.1328,0.1437,0.1521,0.1513,0.1538,0.1336,0.1017,0.0816,0.0516,0.0489,0.0429,0.0378,0.0353,0.0339,0.0471,0.0467,0.0467,0.0466,0.0466,0.0465,0,0.0869,0.0912,0.0985,0.1072,0.1152,0.1185,0.1315,0.1395,0.1523,0.1623,0.1685,0.1633,0.1389,0.1091,0.0695,0.048,0.0392,0.0357,0.034,0.0319,0.0452,0.0471,0.0465,0.0465,0.0465,0.0465,0.0465,0.0466,0.0885,0.0947,0.0982,0.1106,0.1174,0.1283,0.1361,0.1491,0.16,0.1738,0.1792,0.1816,0.1632,0.096,0.0533,0.0413,0.0277,0.0239,0.0151,0.0258,0.0261,0.0265,0.0274,0.0227,0.0226,0.0074,0.0073,0.0071]}],[{"header":{"parameterUnit":"m.s-1","parameterCategory":2,"la1":30.2991,"la2":30.254,"lo1":-89.0895,"lo2":-89.0444,"dy":0.0017,"dx":0.0017,"nx":28,"ny":28,"refTime":"2025-04-25T09:00:00:Z","depth":"2","parameterNumber":2,"parameterNumberName":"U-component_of_CURRENTS"},"data":[0,0,0,0,0,0,0,0,0,0,0,0,0,0,0,0,0,0,0,0,0,0,0,0,0,0,0,0,0,0,0,0,0,0,0,0,0,0,0,0,0,0,0,0,0,0,0,0,0,0,0,0,0,0,0,0,0,0,0.2475,0.2476,0,0.2521,0.2521,0.2521,0.2489,0.2489,0.2488,0.2487,0.2471,0.2471,0.2471,0,0,0,0,0,0,0,0,0,0,0,0,0,0.245,0.2449,0.2475,0.2476,0.2477,0.2521,0.2521,0.2521,0.2489,0.2489,0.2488,0.2487,0.2471,0.2471,0.2471,0,0,0,0,0,0,0,0,0,0,0,0,0,0.2467,0.2449,0.2475,0.2473,0.2474,0.2521,0.2521,0.2521,0.249,0.2489,0.2487,0.2486,0.2471,0.2471,0.2471,0.2495,0,0,0.2473,0.2473,0,0,0,0,0,0,0,0,0.2466,0.2467,0.2472,0.2473,0.2474,0.2505,0.2507,0.2512,0.249,0.2475,0.2487,0.2486,0.2483,0.2482,0.2483,0.2494,0.2493,0.2473,0.2473,0.2473,0.2473,0,0,0,0,0,0,0,0.2465,0.2466,0.2485,0.2473,0.2475,0.2501,0.2501,0.2507,0.2477,0.2476,0.2476,0.2494,0.2481,0.2482,0.2482,0.2493,0.2473,0.2473,0.2473,0.2473,0.2528,0.2529,0,0,0,0,0,0,0.2471,0.2464,0.2484,0.2487,0.2476,0.2503,0.2502,0.249,0.2478,0.2478,0.2495,0.2493,0.2482,0.2482,0.2481,0.2516,0.2473,0.2473,0.2473,0.2527,0.2528,0.253,0,0,0,0,0,0,0.247,0.2471,0.2482,0.2485,0.2489,0.2504,0.2491,0.2492,0.2504,0.2495,0.2491,0.2509,0.2481,0.2481,0.2498,0.2515,0.2473,0.2474,0.2525,0.2527,0.2529,0.258,0,0,0,0,0,0,0.2468,0.247,0.2479,0.2484,0.2489,0.2479,0.2493,0.2493,0.2519,0.2517,0.2506,0.2502,0.2481,0.2498,0.2498,0.2514,0.2474,0.2524,0.2526,0.2528,0.2577,0.2584,0.2589,0,0,0,0,0,0.2467,0.2474,0.2478,0.2482,0.2494,0.2479,0.2482,0.2487,0.2522,0.25,0.2526,0.2503,0.2513,0.25,0.25,0.2516,0.2522,0.2525,0.2528,0.2574,0.2582,0.2589,0,0,0,0,0,0,0.2469,0.2473,0.2476,0.2484,0.2472,0.2476,0.2489,0.2504,0.2511,0.2534,0.2524,0.2521,0.2536,0.2529,0.2515,0.254,0.2512,0.2516,0.2547,0.2555,0.2561,0.2546,0.2474,0,0,0,0,0,0.2477,0.247,0.2474,0.2473,0.248,0.2494,0.2505,0.2507,0.2518,0.2522,0.2521,0.2537,0.2549,0.2554,0.2548,0.2574,0.2563,0.2584,0.259,0.2595,0.2584,0.2612,0.262,0.2539,0.2539,0.2539,0,0,0.2478,0.2481,0.2478,0.2473,0.2478,0.2486,0.2493,0.2508,0.2522,0.2522,0.2547,0.2554,0.256,0.2575,0.2582,0.2572,0.2612,0.2599,0.2603,0.2589,0.2616,0.2624,0.2631,0.2541,0.254,0.254,0,0,0.2479,0.2479,0.2484,0.2479,0.2497,0.2497,0.2506,0.2519,0.2529,0.256,0.257,0.2595,0.2607,0.2611,0.2622,0.2666,0.2639,0.2664,0.2689,0.2718,0.2724,0.273,0.2719,0.2724,0.2673,0.2673,0.2673,0,0.2489,0.2479,0.248,0.2491,0.2496,0.2505,0.2515,0.253,0.2546,0.2574,0.2568,0.2624,0.2626,0.2666,0.2674,0.2679,0.2675,0.2661,0.2725,0.2731,0.2736,0.2723,0.2727,0.2676,0.2676,0.2676,0.2675,0,0.2488,0.2493,0.2495,0.2501,0.2508,0.2503,0.2531,0.2547,0.2581,0.261,0.2654,0.266,0.2693,0.27,0.2702,0.2741,0.2719,0.2726,0.2705,0.2747,0.2731,0.2734,0.268,0.2679,0.2678,0.2678,0,0,0.2458,0.2487,0.2486,0.2497,0.251,0.2512,0.2549,0.2576,0.2618,0.2649,0.2692,0.2729,0.2749,0.276,0.2763,0.2781,0.2815,0.2768,0.2768,0.2752,0.2849,0.277,0.2765,0.2837,0.2838,0.2839,0.2821,0,0.2444,0.2464,0.248,0.2492,0.2503,0.2527,0.2552,0.26,0.2633,0.2673,0.2726,0.276,0.277,0.2783,0.2812,0.2813,0.2827,0.2816,0.2813,0.2812,0.2734,0.2768,0.2551,0.2512,0.2824,0.2825,0.2825,0,0.2424,0.2441,0.2452,0.2493,0.2502,0.251,0.255,0.2584,0.2661,0.27,0.2762,0.279,0.2839,0.2826,0.2869,0.2863,0.2857,0.285,0.285,0.2756,0.2739,0.2522,0.2506,0.283,0.283,0.2829,0.2829,0,0.2378,0.2416,0.2419,0.2426,0.2477,0.2492,0.2523,0.2593,0.2634,0.2712,0.2747,0.2817,0.2844,0.2868,0.288,0.2878,0.2898,0.2902,0.2818,0.2812,0.2613,0.2587,0.2917,0.2917,0.2917,0.2917,0.2917,0,0.233,0.234,0.2398,0.2394,0.2415,0.2475,0.2502,0.2555,0.2627,0.2672,0.2757,0.2781,0.2857,0.2883,0.2885,0.2862,0.2919,0.2813,0.2807,0.2624,0.26,0.2866,0.286,0.2917,0.2917,0.2917,0.2917,0,0.2271,0.23,0.2317,0.237,0.2387,0.2409,0.2479,0.2506,0.2591,0.2639,0.2667,0.2772,0.2809,0.2853,0.288,0.2857,0.2844,0.2816,0.2577,0.2543,0.273,0.2728,0.2719,0.2716,0.2714,0.2712,0.271,0,0.2234,0.2237,0.2287,0.2293,0.2306,0.2351,0.2373,0.2471,0.2501,0.2616,0.2628,0.2702,0.2725,0.2748,0.2715,0.2694,0.2782,0.2474,0.2436,0.2717,0.2713,0.2714,0.2715,0.2187,0.2181,0.2177,0.2173,0,0.2176,0.2196,0.2213,0.2219,0.2232,0.2259,0.23,0.2319,0.2427,0.2467,0.2518,0.2549,0.2582,0.2469,0.2455,0.2421,0.2465,0.2375,0.2739,0.2279,0.2217,0.2213,0.2231,0.213,0.2134,0.2138,0.214,0.2142,0.2136,0.2128,0.2142,0.2139,0.2156,0.2145,0.2126,0.2173,0.22,0.2229,0.2337,0.2304,0.2322,0.2189,0.2107,0.2041,0.2219,0.2118,0.2132,0.2151,0.2101,0.204,0.1907,0.191,0.1913,0.1915,0.1917,0,0.2077,0.2071,0.2062,0.2042,0.2009,0.2053,0.2057,0.2016,0.1988,0.2034,0.2054,0.188,0.1791,0.181,0.1632,0.1619,0.1605,0.156,0.1523,0.1566,0.1605,0.1527,0.118,0.1178,0.1176,0.1173,0,0,0.205,0.2008,0.1988,0.1898,0.1882,0.1804,0.1782,0.174,0.1737,0.1675,0.163,0.1741,0.177,0.1464,0.1413,0.1262,0.1411,0.1213,0.1807,0.1809,0.1845,0.193,0.186,0,0,0,0,0]},{"header":{"parameterUnit":"m.s-1","parameterCategory":2,"la1":30.2991,"la2":30.254,"lo1":-89.0895,"lo2":-89.0444,"dy":0.0017,"dx":0.0017,"nx":28,"ny":28,"refTime":"2025-04-25T09:00:00:Z","depth":"2","parameterNumber":3,"parameterNumberName":"V-component_of_CURRENTS"},"data":[0,0,0,0,0,0,0,0,0,0,0,0,0,0,0,0,0,0,0,0,0,0,0,0,0,0,0,0,0,0,0,0,0,0,0,0,0,0,0,0,0,0,0,0,0,0,0,0,0,0,0,0,0,0,0,0,0,0,0.0335,0.0335,0,0.0325,0.0325,0.0325,0.0317,0.0317,0.0317,0.0316,0.0292,0.0292,0.0291,0,0,0,0,0,0,0,0,0,0,0,0,0,0.0309,0.031,0.0335,0.0335,0.0334,0.0325,0.0325,0.0325,0.0317,0.0317,0.0317,0.0316,0.0292,0.0292,0.0291,0,0,0,0,0,0,0,0,0,0,0,0,0,0.0312,0.031,0.0335,0.0329,0.0329,0.0325,0.0325,0.0325,0.0317,0.0317,0.0317,0.0316,0.0293,0.0292,0.0291,0.0288,0,0,0.0288,0.0288,0,0,0,0,0,0,0,0,0.0312,0.0313,0.033,0.033,0.0329,0.0322,0.0307,0.0312,0.0317,0.0321,0.0316,0.0316,0.0301,0.03,0.0298,0.0287,0.0286,0.0288,0.0288,0.0287,0.0287,0,0,0,0,0,0,0,0.0312,0.0313,0.0331,0.033,0.0329,0.0315,0.0316,0.0308,0.0311,0.0321,0.032,0.0319,0.0301,0.0299,0.0297,0.0286,0.0288,0.0288,0.0287,0.0287,0.0279,0.028,0,0,0,0,0,0,0.0315,0.0313,0.0331,0.033,0.032,0.0316,0.0316,0.0324,0.0312,0.031,0.032,0.0319,0.03,0.0298,0.0296,0.0306,0.0287,0.0287,0.0286,0.0279,0.0279,0.028,0,0,0,0,0,0,0.0315,0.0318,0.0331,0.0321,0.0322,0.0317,0.0325,0.0324,0.0324,0.0311,0.0309,0.0321,0.03,0.0298,0.0293,0.0304,0.0286,0.0285,0.0279,0.0279,0.028,0.0316,0,0,0,0,0,0,0.0315,0.0318,0.0322,0.0322,0.0323,0.0339,0.0326,0.0324,0.0324,0.0323,0.0312,0.0309,0.03,0.0294,0.0292,0.0303,0.0285,0.0278,0.0279,0.0279,0.0315,0.0318,0.0321,0,0,0,0,0,0.0314,0.0327,0.0322,0.0324,0.033,0.034,0.034,0.0334,0.0324,0.0332,0.0319,0.031,0.0296,0.0294,0.0291,0.0302,0.0278,0.0279,0.0279,0.0313,0.0317,0.0321,0,0,0,0,0,0,0.0319,0.0327,0.0322,0.0337,0.034,0.0339,0.0342,0.0337,0.0332,0.0329,0.0312,0.0309,0.031,0.0299,0.0297,0.0301,0.0286,0.0287,0.0313,0.0317,0.032,0.0338,0.0284,0,0,0,0,0,0.0321,0.0334,0.0336,0.0348,0.0349,0.0344,0.0345,0.0344,0.034,0.0338,0.0327,0.0316,0.0311,0.0308,0.0302,0.0302,0.0286,0.0308,0.0311,0.0314,0.0326,0.0306,0.0309,0.0282,0.0282,0.0282,0,0,0.0326,0.0332,0.0338,0.0349,0.0348,0.0364,0.0345,0.0354,0.0365,0.0336,0.0342,0.0326,0.0313,0.0316,0.0316,0.0309,0.0311,0.0315,0.0317,0.0328,0.0307,0.031,0.0312,0.0283,0.0283,0.0282,0,0,0.0348,0.0347,0.0366,0.0371,0.0377,0.0377,0.0382,0.0381,0.0379,0.0383,0.0364,0.0356,0.0346,0.0341,0.0337,0.0352,0.0327,0.0347,0.0378,0.0358,0.0361,0.0362,0.0338,0.0337,0.0349,0.0349,0.0349,0,0.0353,0.0379,0.0372,0.0391,0.04,0.0387,0.041,0.0409,0.0406,0.0409,0.0392,0.0379,0.0362,0.0371,0.0374,0.0361,0.0341,0.0366,0.0363,0.0364,0.0365,0.034,0.0339,0.0351,0.0351,0.035,0.035,0,0.0393,0.0409,0.042,0.0442,0.045,0.0468,0.0467,0.0471,0.0461,0.0459,0.0459,0.0432,0.0427,0.0417,0.04,0.0404,0.0383,0.0368,0.0355,0.037,0.0342,0.034,0.0353,0.0353,0.0352,0.0352,0,0,0.0419,0.0444,0.0449,0.0467,0.0479,0.0495,0.051,0.0527,0.0544,0.0524,0.054,0.0518,0.0497,0.0491,0.0463,0.0445,0.0426,0.0412,0.041,0.0391,0.0377,0.0365,0.0361,0.0406,0.0406,0.0406,0.0351,0,0.0454,0.0503,0.0504,0.0548,0.0572,0.0564,0.0584,0.0593,0.0591,0.06,0.0567,0.057,0.0527,0.0522,0.0496,0.0448,0.0424,0.0443,0.0363,0.0361,0.035,0.036,0.0371,0.0323,0.0349,0.0349,0.0348,0,0.0494,0.0524,0.0573,0.0607,0.0617,0.0638,0.067,0.0688,0.0691,0.0688,0.0676,0.0645,0.0619,0.0576,0.0502,0.0513,0.0452,0.0407,0.0404,0.0383,0.0346,0.0313,0.0318,0.0345,0.0345,0.0345,0.0345,0,0.0526,0.0571,0.0614,0.0626,0.0662,0.0679,0.0699,0.0715,0.0744,0.0743,0.0754,0.0712,0.0695,0.0615,0.0517,0.0507,0.043,0.0403,0.0334,0.0332,0.0323,0.0321,0.0351,0.0351,0.0352,0.0352,0.0352,0,0.0566,0.0599,0.0632,0.0657,0.0712,0.0719,0.0775,0.0786,0.0813,0.0853,0.08,0.0814,0.0703,0.0641,0.0541,0.0436,0.0444,0.0347,0.0322,0.0335,0.0334,0.034,0.034,0.035,0.035,0.035,0.0351,0,0.0593,0.0614,0.0666,0.0711,0.0728,0.0769,0.0829,0.0872,0.0883,0.0929,0.0929,0.0894,0.0818,0.0696,0.0573,0.0476,0.037,0.0328,0.0349,0.0328,0.0277,0.0279,0.0248,0.0247,0.0246,0.0246,0.0245,0,0.0612,0.0641,0.0706,0.0743,0.0764,0.0824,0.087,0.0907,0.0958,0.0982,0.101,0.0952,0.0926,0.0741,0.0572,0.0401,0.0372,0.0284,0.0271,0.029,0.0268,0.0271,0.0274,0.0265,0.0265,0.0265,0.0264,0,0.0646,0.0666,0.0713,0.0787,0.0841,0.0914,0.0979,0.103,0.1073,0.1107,0.1141,0.112,0.0955,0.0798,0.0563,0.0441,0.0312,0.0275,0.0291,0.0295,0.0303,0.0283,0.0286,0.0263,0.0263,0.0263,0.0263,0.0263,0.067,0.0705,0.0761,0.0833,0.0902,0.0987,0.1048,0.1121,0.1202,0.1251,0.1237,0.12,0.102,0.0729,0.0527,0.0306,0.0322,0.0227,0.0229,0.0231,0.0248,0.0256,0.0208,0.0208,0.0208,0.0208,0.0208,0,0.0695,0.0736,0.0803,0.0887,0.0961,0.0996,0.111,0.1169,0.1261,0.1308,0.1333,0.1139,0.0966,0.0745,0.0434,0.025,0.0231,0.0171,0.0193,0.0197,0.0199,0.0215,0.0167,0.0166,0.0165,0.0165,0,0,0.0707,0.0765,0.0797,0.0912,0.0976,0.1076,0.1141,0.1232,0.1293,0.1333,0.1313,0.1287,0.1027,0.0787,0.054,0.0357,0.0314,0.0309,0.0364,0.0424,0.0429,0.0254,0.0285,0,0,0,0,0]}],[{"header":{"parameterUnit":"m.s-1","parameterCategory":2,"la1":30.2991,"la2":30.254,"lo1":-89.0895,"lo2":-89.0444,"dy":0.0017,"dx":0.0017,"nx":28,"ny":28,"refTime":"2025-04-25T09:00:00:Z","depth":"4","parameterNumber":2,"parameterNumberName":"U-component_of_CURRENTS"},"data":[0,0,0,0,0,0,0,0,0,0,0,0,0,0,0,0,0,0,0,0,0,0,0,0,0,0,0,0,0,0,0,0,0,0,0,0,0,0,0,0,0,0,0,0,0,0,0,0,0,0,0,0,0,0,0,0,0,0,0.1419,0.142,0,0.1469,0.1469,0.1469,0.1518,0.1519,0.152,0.152,0.1587,0.1588,0.1589,0,0,0,0,0,0,0,0,0,0,0,0,0,0.137,0.137,0.1419,0.142,0.142,0.1468,0.1469,0.147,0.1518,0.1519,0.152,0.1521,0.1587,0.1588,0.1589,0,0,0,0,0,0,0,0,0,0,0,0,0,0.1401,0.137,0.1419,0.1451,0.1455,0.1468,0.1469,0.147,0.1518,0.1519,0.152,0.1521,0.1586,0.1588,0.159,0.1577,0,0,0.1595,0.1595,0,0,0,0,0,0,0,0,0.1399,0.1403,0.1446,0.1449,0.1453,0.1489,0.1476,0.1507,0.1518,0.1493,0.152,0.1522,0.1556,0.156,0.1565,0.1581,0.1583,0.1595,0.1596,0.1596,0.1597,0,0,0,0,0,0,0,0.1397,0.1401,0.1438,0.1446,0.1451,0.1464,0.147,0.1482,0.1517,0.1495,0.1499,0.1506,0.1558,0.1563,0.1567,0.1584,0.1595,0.1596,0.1597,0.1598,0.1681,0.1682,0,0,0,0,0,0,0.1392,0.1399,0.1436,0.1439,0.143,0.1464,0.1471,0.1476,0.1517,0.1524,0.1505,0.1508,0.156,0.1565,0.157,0.1636,0.1596,0.1598,0.1599,0.168,0.1681,0.1682,0,0,0,0,0,0,0.139,0.1394,0.1434,0.1421,0.1427,0.1464,0.1469,0.1476,0.1511,0.1524,0.1532,0.1536,0.1561,0.1567,0.1609,0.1636,0.1599,0.16,0.1678,0.168,0.1682,0.1719,0,0,0,0,0,0,0.1389,0.1394,0.1409,0.1421,0.1428,0.1458,0.1469,0.1476,0.1512,0.1518,0.1553,0.1559,0.1563,0.1607,0.1611,0.1638,0.1601,0.1677,0.1679,0.1681,0.1716,0.1722,0.1727,0,0,0,0,0,0.1387,0.1399,0.1409,0.1415,0.1443,0.1458,0.1464,0.1492,0.1513,0.1528,0.1559,0.1559,0.1624,0.1609,0.1613,0.1642,0.1676,0.1678,0.1681,0.1714,0.1721,0.1727,0,0,0,0,0,0,0.1387,0.1405,0.1417,0.1435,0.1454,0.1468,0.1492,0.1507,0.1543,0.1562,0.1573,0.158,0.1629,0.1629,0.1612,0.1673,0.1651,0.1654,0.1674,0.1681,0.1686,0.1689,0.1603,0,0,0,0,0,0.1392,0.1409,0.1424,0.1443,0.1456,0.1479,0.1496,0.1515,0.154,0.1559,0.1582,0.1611,0.1637,0.1655,0.1676,0.1705,0.1716,0.1728,0.1733,0.1737,0.1743,0.1796,0.1807,0.1692,0.1692,0.1691,0,0,0.1399,0.1412,0.1423,0.1445,0.1467,0.1488,0.1493,0.1528,0.1553,0.156,0.1612,0.1633,0.1651,0.1689,0.171,0.1697,0.1773,0.1741,0.1744,0.1748,0.18,0.1812,0.1822,0.1693,0.1693,0.1693,0,0,0.1412,0.1434,0.1451,0.147,0.1505,0.1516,0.1531,0.156,0.1586,0.163,0.1644,0.1684,0.1722,0.1737,0.175,0.1796,0.1801,0.1806,0.1833,0.1884,0.1894,0.1903,0.1916,0.1926,0.1805,0.1805,0.1805,0,0.1425,0.1441,0.146,0.1482,0.1502,0.1531,0.1554,0.158,0.162,0.1646,0.1657,0.1732,0.1745,0.179,0.1806,0.1809,0.1829,0.1806,0.1892,0.1901,0.1909,0.1921,0.1931,0.1807,0.1807,0.1807,0.1807,0,0.1435,0.1467,0.1482,0.1517,0.154,0.1568,0.1599,0.1636,0.1674,0.1699,0.1765,0.1789,0.1835,0.1842,0.184,0.1903,0.1893,0.1895,0.1875,0.1923,0.1932,0.1942,0.181,0.181,0.1809,0.1809,0,0,0.1422,0.1478,0.1489,0.1512,0.1563,0.1578,0.1631,0.1675,0.1721,0.1769,0.1826,0.187,0.1896,0.1911,0.1917,0.1952,0.2019,0.1951,0.1953,0.1962,0.2117,0.1948,0.1942,0.2046,0.2048,0.205,0.2093,0,0.143,0.1468,0.1497,0.1546,0.1567,0.1615,0.1659,0.171,0.1762,0.1825,0.1867,0.1928,0.1918,0.1953,0.199,0.202,0.2051,0.2006,0.2071,0.2072,0.1915,0.195,0.2057,0.2101,0.2103,0.2105,0.2106,0,0.1428,0.1453,0.1496,0.156,0.1576,0.1615,0.1693,0.1739,0.1829,0.1877,0.1948,0.1986,0.205,0.2039,0.2119,0.2096,0.2114,0.2125,0.2128,0.1964,0.1922,0.2047,0.2124,0.2123,0.2122,0.212,0.2119,0,0.1391,0.1455,0.1488,0.1509,0.1583,0.1625,0.1674,0.1762,0.1814,0.1923,0.1978,0.2056,0.2113,0.2159,0.2182,0.2172,0.2256,0.2245,0.2103,0.2091,0.2215,0.2205,0.2306,0.2306,0.2306,0.2306,0.2306,0,0.137,0.1403,0.148,0.1498,0.1554,0.1615,0.1694,0.1758,0.1861,0.1919,0.2009,0.2056,0.2154,0.2204,0.2214,0.2177,0.2289,0.2108,0.2096,0.2226,0.2217,0.2221,0.2211,0.2308,0.2307,0.2307,0.2307,0,0.1325,0.1376,0.1422,0.1507,0.1541,0.1586,0.1704,0.1753,0.1861,0.1943,0.1983,0.2093,0.2143,0.2199,0.2268,0.22,0.2193,0.2154,0.2275,0.2269,0.1985,0.1976,0.1997,0.1992,0.1987,0.1983,0.198,0,0.1299,0.1319,0.1421,0.1457,0.1503,0.1582,0.1634,0.1748,0.1794,0.1934,0.1954,0.2052,0.2102,0.2058,0.213,0.2127,0.2102,0.2079,0.2035,0.1969,0.1957,0.1955,0.1953,0.1973,0.1971,0.197,0.1969,0,0.1251,0.1306,0.1347,0.1415,0.1477,0.153,0.1609,0.1632,0.1748,0.1862,0.1874,0.1888,0.1932,0.1957,0.1965,0.1963,0.2082,0.203,0.2039,0.1998,0.194,0.1931,0.1934,0.1953,0.1955,0.1956,0.1957,0,0.1231,0.1247,0.1312,0.1357,0.143,0.1444,0.1499,0.1534,0.159,0.1727,0.1726,0.1814,0.1913,0.1871,0.1882,0.1859,0.1828,0.1761,0.1784,0.1802,0.1714,0.1611,0.1512,0,0,0,0,0,0.12,0.1202,0.1243,0.1279,0.1341,0.1375,0.1462,0.1514,0.1619,0.1581,0.1646,0.1668,0.1666,0.1716,0.1652,0.1797,0.1842,0.1713,0.1779,0.1863,0.1882,0.1794,0,0,0,0,0,0,0.1179,0.1219,0.1213,0.1196,0.1203,0.125,0.1299,0.1373,0.1354,0.1468,0.148,0.1558,0.1591,0.1685,0.1619,0.1632,0.1634,0.177,0.1765,0.1852,0.1869,0.1884,0.1801,0,0,0,0,0]},{"header":{"parameterUnit":"m.s-1","parameterCategory":2,"la1":30.2991,"la2":30.254,"lo1":-89.0895,"lo2":-89.0444,"dy":0.0017,"dx":0.0017,"nx":28,"ny":28,"refTime":"2025-04-25T09:00:00:Z","depth":"4","parameterNumber":3,"parameterNumberName":"V-component_of_CURRENTS"},"data":[0,0,0,0,0,0,0,0,0,0,0,0,0,0,0,0,0,0,0,0,0,0,0,0,0,0,0,0,0,0,0,0,0,0,0,0,0,0,0,0,0,0,0,0,0,0,0,0,0,0,0,0,0,0,0,0,0,0,0.0311,0.0311,0,0.0314,0.0314,0.0314,0.0312,0.0312,0.0312,0.0312,0.031,0.031,0.031,0,0,0,0,0,0,0,0,0,0,0,0,0,0.0278,0.0279,0.0311,0.0311,0.0311,0.0314,0.0314,0.0314,0.0312,0.0312,0.0312,0.0312,0.031,0.031,0.031,0,0,0,0,0,0,0,0,0,0,0,0,0,0.0288,0.0279,0.0311,0.0311,0.0311,0.0314,0.0314,0.0314,0.0312,0.0312,0.0312,0.0312,0.031,0.031,0.031,0.0311,0,0,0.031,0.031,0,0,0,0,0,0,0,0,0.0287,0.0289,0.0311,0.0311,0.0311,0.0313,0.0302,0.0313,0.0312,0.0311,0.0312,0.0312,0.0311,0.0311,0.0311,0.0311,0.0311,0.031,0.031,0.031,0.031,0,0,0,0,0,0,0,0.0286,0.0288,0.0311,0.0311,0.0311,0.0302,0.0304,0.0304,0.0311,0.0311,0.0311,0.0313,0.0311,0.0311,0.0311,0.0311,0.031,0.031,0.031,0.031,0.0321,0.0322,0,0,0,0,0,0,0.0289,0.0288,0.0311,0.0312,0.0299,0.0303,0.0305,0.0312,0.0311,0.0311,0.0313,0.0313,0.0311,0.0311,0.0311,0.033,0.031,0.031,0.031,0.0321,0.0321,0.0322,0,0,0,0,0,0,0.0288,0.0291,0.0311,0.03,0.0302,0.0304,0.0312,0.0312,0.0318,0.0312,0.0312,0.0319,0.0311,0.0311,0.0317,0.0329,0.031,0.031,0.0321,0.0321,0.0322,0.0356,0,0,0,0,0,0,0.0287,0.0291,0.0298,0.03,0.0303,0.0319,0.0312,0.0312,0.0319,0.0319,0.0318,0.0317,0.0311,0.0318,0.0317,0.0328,0.031,0.032,0.0321,0.0322,0.0354,0.0358,0.036,0,0,0,0,0,0.0286,0.0299,0.0298,0.0301,0.0312,0.0319,0.032,0.032,0.0319,0.0325,0.0324,0.0317,0.0321,0.0318,0.0318,0.0329,0.032,0.0321,0.0321,0.0353,0.0357,0.036,0,0,0,0,0,0,0.0289,0.03,0.0299,0.0315,0.0318,0.0319,0.0325,0.0325,0.0329,0.0331,0.0323,0.0323,0.0333,0.0325,0.0322,0.0333,0.0319,0.032,0.0343,0.0346,0.0349,0.0355,0.0309,0,0,0,0,0,0.0292,0.0306,0.031,0.0322,0.0324,0.0325,0.0329,0.0331,0.0334,0.0336,0.0335,0.0333,0.0334,0.0336,0.0335,0.0343,0.0324,0.0349,0.0352,0.0354,0.0359,0.0336,0.0337,0.0324,0.0324,0.0324,0,0,0.0296,0.0305,0.0312,0.0324,0.0325,0.0338,0.0327,0.0338,0.035,0.0335,0.0351,0.0345,0.0339,0.0348,0.0351,0.0344,0.0347,0.0355,0.0358,0.0361,0.0336,0.0338,0.0339,0.0325,0.0325,0.0325,0,0,0.0312,0.0318,0.0333,0.0339,0.0348,0.035,0.0356,0.0361,0.0365,0.0377,0.0369,0.037,0.0374,0.0371,0.037,0.0388,0.0363,0.0387,0.0409,0.0386,0.0387,0.0388,0.0362,0.036,0.0389,0.0389,0.0389,0,0.0317,0.0338,0.0338,0.0353,0.0363,0.0359,0.0377,0.0381,0.0389,0.0395,0.0388,0.0392,0.0385,0.0395,0.0401,0.0395,0.0376,0.0397,0.039,0.039,0.039,0.0364,0.0361,0.0391,0.0391,0.039,0.039,0,0.0341,0.0359,0.0368,0.0389,0.0398,0.0413,0.0419,0.0428,0.0432,0.0434,0.0443,0.0431,0.0433,0.043,0.0423,0.0423,0.0407,0.0396,0.0381,0.0393,0.0365,0.0361,0.0393,0.0393,0.0392,0.0392,0,0,0.0354,0.0381,0.0386,0.0403,0.042,0.0434,0.0452,0.0469,0.0487,0.0482,0.0498,0.0493,0.0482,0.0479,0.0465,0.0447,0.0428,0.0424,0.0422,0.04,0.0374,0.035,0.0343,0.0413,0.0413,0.0413,0.0353,0,0.0375,0.0414,0.0421,0.0459,0.0479,0.0484,0.0504,0.0518,0.0524,0.0536,0.0517,0.0526,0.0502,0.0505,0.0482,0.0445,0.042,0.0445,0.0365,0.0363,0.0341,0.034,0.0412,0.035,0.0349,0.0349,0.0348,0,0.0397,0.0423,0.0465,0.0502,0.0511,0.0533,0.0567,0.0587,0.0596,0.0599,0.0594,0.0577,0.0558,0.0532,0.0466,0.0482,0.0432,0.0396,0.0392,0.0357,0.0333,0.0336,0.0342,0.0342,0.0343,0.0343,0.0344,0,0.0411,0.0453,0.0491,0.0504,0.0543,0.0564,0.0588,0.0609,0.0634,0.064,0.0649,0.0618,0.0608,0.0542,0.0467,0.0465,0.0385,0.0372,0.0301,0.0298,0.0322,0.0322,0.0319,0.0319,0.0319,0.0319,0.0319,0,0.043,0.0461,0.0503,0.0524,0.0575,0.0592,0.0644,0.0658,0.0685,0.0716,0.0685,0.0689,0.061,0.0555,0.0477,0.0379,0.039,0.0303,0.0281,0.0338,0.034,0.0319,0.032,0.0317,0.0317,0.0318,0.0318,0,0.0437,0.0465,0.0512,0.0562,0.0583,0.0621,0.0686,0.0721,0.0738,0.0772,0.0775,0.0744,0.0672,0.058,0.0474,0.0397,0.0303,0.0263,0.0331,0.0314,0.0226,0.0229,0.0176,0.0174,0.0173,0.0172,0.0172,0,0.0443,0.0468,0.0539,0.0575,0.0601,0.0661,0.0706,0.0747,0.0784,0.0803,0.0816,0.0765,0.0726,0.0559,0.0461,0.0304,0.0279,0.0219,0.022,0.0227,0.0211,0.0216,0.0221,0.017,0.017,0.0169,0.0169,0,0.0452,0.048,0.0522,0.0595,0.065,0.0715,0.0777,0.0804,0.0846,0.086,0.0841,0.0759,0.0677,0.0555,0.0434,0.0322,0.0252,0.0207,0.0209,0.0209,0.0219,0.0206,0.0212,0.0165,0.0166,0.0166,0.0166,0,0.046,0.0488,0.0545,0.0609,0.0682,0.0744,0.078,0.0818,0.0853,0.0865,0.0859,0.0771,0.0731,0.0565,0.0456,0.0341,0.0306,0.0253,0.0251,0.0254,0.0293,0.0318,0.0275,0,0,0,0,0,0.0463,0.0495,0.0554,0.0624,0.0697,0.074,0.0817,0.0846,0.088,0.0866,0.0862,0.0783,0.0622,0.0565,0.0445,0.0428,0.0284,0.0281,0.0222,0.0143,0.0148,0.0177,0,0,0,0,0,0,0.0463,0.0517,0.0547,0.0626,0.0673,0.0754,0.0804,0.083,0.0825,0.0838,0.0763,0.0729,0.0585,0.0685,0.0434,0.0403,0.0341,0.0216,0.0212,0.0141,0.0145,0.0149,0.018,0,0,0,0,0]}]]